Weather History for Harrisburg, IL

Change the Weather History Date:

Friday, February 1, 2013

  Actual Average (KMWA) Record (KMWA)
Temperature  
Mean Temperature 18 °F -  
Max Temperature 26 °F 42 °F 64 °F (1989)
Min Temperature 10 °F 21 °F -5 °F (1979)
Degree Days  
Heating Degree Days 47    
Moisture  
Dew Point 7 °F    
Average Humidity 59    
Maximum Humidity 73    
Minimum Humidity 47    
Precipitation  
Precipitation 0.00 in - - ()
Sea Level Pressure  
Sea Level Pressure 30.42 in    
Wind  
Wind Speed 10 mph (WSW)    
Max Wind Speed 21 mph    
Max Gust Speed 29 mph    
Visibility 10 miles    
Events      
Averages and records for this station are not official NWS values.
T = Trace of Precipitation, MM = Missing Value Source: NWS Daily Summary

Daily Weather History Graph

Daily Weather History Graph

Search for Another Location

Airport:

Trip Planner

Search our weather history database for the weather conditions in past years. The results will help you decide how hot, cold, wet, or windy it might be!

Date:

Astronomy

Feb. 01, 2013 Rise Set
Actual Time 6:58 AM CST 5:18 PM CST
Civil Twilight 6:30 AM CST 5:45 PM CST
Nautical Twilight 5:59 AM CST 6:17 PM CST
Astronomical Twilight 5:28 AM CST 6:47 PM CST
Moon 11:17 PM CST (2/1) 9:38 AM CST (2/1)
Length of Visible Light 11h 15m
Length of Day
10h 20m
Waning Gibbous, 70% of the Moon is Illuminated
Feb 1
Waning Gibbous
Feb 3
Last Quarter
Feb 10
New
Feb 17
First Quarter
Feb 25
Full

Hourly Weather History & Observations

Time (CST) Temp. Windchill Dew Point Humidity Pressure Visibility Wind Dir Wind Speed Gust Speed Precip Events Conditions
12:15 AM 17.6 °F 0.9 °F 5.0 °F 58% 30.35 in 10.0 mi WNW 20.7 mph 27.6 mph N/A   Scattered Clouds
12:35 AM 17.6 °F 1.7 °F 3.2 °F 53% 30.36 in 10.0 mi NW 18.4 mph 28.8 mph N/A   Scattered Clouds
12:55 AM 17.6 °F 2.7 °F 3.2 °F 53% 30.36 in 10.0 mi NW 16.1 mph 20.7 mph N/A   Clear
1:15 AM 17.6 °F 3.7 °F 5.0 °F 58% 30.37 in 10.0 mi NW 13.8 mph 19.6 mph N/A   Clear
1:35 AM 15.8 °F 2.1 °F 6.8 °F 68% 30.38 in 10.0 mi NW 12.7 mph - N/A   Clear
1:55 AM 15.8 °F 3.4 °F 8.6 °F 73% 30.39 in 10.0 mi NW 10.4 mph - N/A   Scattered Clouds
2:15 AM 15.8 °F -0.2 °F 6.8 °F 68% 30.39 in 10.0 mi NW 17.3 mph 21.9 mph N/A   Scattered Clouds
2:35 AM 14.0 °F -2.5 °F 5.0 °F 67% 30.39 in 10.0 mi NW 17.3 mph 23.0 mph N/A   Mostly Cloudy
2:55 AM 14.0 °F -2.5 °F 3.2 °F 62% 30.40 in 10.0 mi WNW 17.3 mph 24.2 mph N/A   Scattered Clouds
3:15 AM 14.0 °F -0.8 °F 3.2 °F 62% 30.40 in 10.0 mi NW 13.8 mph 17.3 mph N/A   Clear
3:35 AM 14.0 °F -1.4 °F 3.2 °F 62% 30.41 in 10.0 mi NW 15.0 mph 18.4 mph N/A   Clear
3:55 AM 14.0 °F 1.2 °F 3.2 °F 62% 30.41 in 10.0 mi NW 10.4 mph 18.4 mph N/A   Clear
4:15 AM 12.2 °F -0.2 °F 3.2 °F 67% 30.41 in 10.0 mi NW 9.2 mph - N/A   Clear
4:35 AM 12.2 °F -0.2 °F 3.2 °F 67% 30.41 in 10.0 mi NW 9.2 mph - N/A   Clear
4:55 AM 12.2 °F 6.1 °F 3.2 °F 67% 30.42 in 10.0 mi NNW 3.5 mph - N/A   Clear
5:15 AM 12.2 °F - 3.2 °F 67% 30.43 in 10.0 mi Calm Calm - N/A   Clear
5:35 AM 12.2 °F 6.1 °F 3.2 °F 67% 30.44 in 10.0 mi North 3.5 mph - N/A   Clear
5:55 AM 10.4 °F - 3.2 °F 73% 30.45 in 10.0 mi Calm Calm - N/A   Scattered Clouds
6:15 AM 10.4 °F - 3.2 °F 73% 30.46 in 10.0 mi Calm Calm - N/A   Scattered Clouds
6:35 AM 12.2 °F 0.7 °F 3.2 °F 67% 30.46 in 10.0 mi WNW 8.1 mph - N/A   Clear
6:55 AM 12.2 °F -1.0 °F 3.2 °F 67% 30.47 in 10.0 mi West 10.4 mph - N/A   Clear
7:15 AM 12.2 °F -0.2 °F 3.2 °F 67% 30.48 in 10.0 mi WNW 9.2 mph - N/A   Clear
7:35 AM 12.2 °F 0.7 °F 3.2 °F 67% 30.49 in 10.0 mi WNW 8.1 mph - N/A   Clear
7:55 AM 12.2 °F -0.2 °F 3.2 °F 67% 30.49 in 10.0 mi WNW 9.2 mph - N/A   Clear
8:15 AM 14.0 °F 2.0 °F 3.2 °F 62% 30.49 in 10.0 mi West 9.2 mph - N/A   Clear
8:35 AM 14.0 °F 3.9 °F 3.2 °F 62% 30.50 in 10.0 mi West 6.9 mph - N/A   Clear
8:55 AM 14.0 °F 2.0 °F 5.0 °F 67% 30.51 in 10.0 mi West 9.2 mph - N/A   Clear
9:15 AM 15.8 °F 6.1 °F 5.0 °F 62% 30.51 in 10.0 mi WNW 6.9 mph - N/A   Clear
9:35 AM 15.8 °F 4.2 °F 5.0 °F 62% 30.52 in 10.0 mi West 9.2 mph - N/A   Clear
9:55 AM 17.6 °F 6.4 °F 3.2 °F 53% 30.53 in 10.0 mi West 9.2 mph - N/A   Clear
10:15 AM 17.6 °F 6.4 °F 3.2 °F 53% 30.53 in 10.0 mi West 9.2 mph - N/A   Clear
10:35 AM 17.6 °F 6.4 °F 3.2 °F 53% 30.53 in 10.0 mi West 9.2 mph - N/A   Clear
10:55 AM 17.6 °F 5.7 °F 3.2 °F 53% 30.53 in 10.0 mi West 10.4 mph - N/A   Clear
11:15 AM 19.4 °F 12.8 °F 5.0 °F 54% 30.52 in 10.0 mi NW 4.6 mph - N/A   Clear
11:35 AM 19.4 °F 8.6 °F 5.0 °F 54% 30.51 in 10.0 mi West 9.2 mph - N/A   Clear
11:55 AM 19.4 °F 14.3 °F 5.0 °F 54% 30.50 in 10.0 mi West 3.5 mph - N/A   Clear
12:15 PM 21.2 °F 11.7 °F 6.8 °F 54% 30.49 in 10.0 mi West 8.1 mph - N/A   Clear
12:35 PM 21.2 °F 12.6 °F 6.8 °F 54% 30.48 in 10.0 mi West 6.9 mph - N/A   Clear
12:55 PM 21.2 °F 14.9 °F 8.6 °F 58% 30.47 in 10.0 mi WSW 4.6 mph - N/A   Clear
1:15 PM 21.2 °F 16.4 °F 6.8 °F 54% 30.46 in 10.0 mi SW 3.5 mph - N/A   Clear
1:35 PM 23.0 °F 15.8 °F 6.8 °F 50% 30.45 in 10.0 mi West 5.8 mph - N/A   Clear
1:55 PM 23.0 °F 17.0 °F 8.6 °F 54% 30.44 in 10.0 mi SSW 4.6 mph - N/A   Clear
2:15 PM 23.0 °F 14.7 °F 8.6 °F 54% 30.44 in 10.0 mi WSW 6.9 mph - N/A   Clear
2:35 PM 24.8 °F - 8.6 °F 50% 30.43 in 10.0 mi Calm Calm - N/A   Clear
2:55 PM 24.8 °F 20.5 °F 8.6 °F 50% 30.43 in 10.0 mi SSW 3.5 mph - N/A   Clear
3:15 PM 26.6 °F 21.2 °F 8.6 °F 47% 30.43 in 10.0 mi SW 4.6 mph - N/A   Clear
3:35 PM 26.6 °F 21.2 °F 10.4 °F 51% 30.42 in 10.0 mi South 4.6 mph - N/A   Clear
3:55 PM 26.6 °F - 8.6 °F 47% 30.42 in 10.0 mi Calm Calm - N/A   Clear
4:15 PM 26.6 °F - 8.6 °F 47% 30.41 in 10.0 mi Calm Calm - N/A   Clear
4:35 PM 26.6 °F 22.6 °F 8.6 °F 47% 30.39 in 10.0 mi South 3.5 mph - N/A   Clear
4:55 PM 26.6 °F 19.1 °F 10.4 °F 51% 30.39 in 10.0 mi SSW 6.9 mph - N/A   Clear
5:15 PM 26.6 °F 19.1 °F 10.4 °F 51% 30.39 in 10.0 mi SSW 6.9 mph - N/A   Clear
5:35 PM 26.6 °F 20.0 °F 12.2 °F 55% 30.39 in 10.0 mi SSW 5.8 mph - N/A   Clear
5:55 PM 24.8 °F 17.9 °F 12.2 °F 59% 30.38 in 10.0 mi South 5.8 mph - N/A   Clear
6:15 PM 26.6 °F 21.2 °F 10.4 °F 51% 30.39 in 10.0 mi SSW 4.6 mph - N/A   Clear
6:35 PM 26.6 °F 20.0 °F 12.2 °F 55% 30.39 in 10.0 mi SSW 5.8 mph - N/A   Clear
6:55 PM 26.6 °F 20.0 °F 12.2 °F 55% 30.39 in 10.0 mi SSW 5.8 mph - N/A   Clear
7:15 PM 26.6 °F 19.1 °F 12.2 °F 55% 30.37 in 10.0 mi South 6.9 mph - N/A   Clear
7:35 PM 26.6 °F 20.0 °F 12.2 °F 55% 30.36 in 10.0 mi South 5.8 mph - N/A   Scattered Clouds
7:55 PM 26.6 °F 19.1 °F 12.2 °F 55% 30.37 in 10.0 mi SSW 6.9 mph - N/A   Scattered Clouds
8:15 PM 26.6 °F 19.1 °F 12.2 °F 55% 30.37 in 10.0 mi SSW 6.9 mph - N/A   Scattered Clouds
8:35 PM 26.6 °F 19.1 °F 12.2 °F 55% 30.36 in 10.0 mi SSW 6.9 mph - N/A   Scattered Clouds
8:55 PM 24.8 °F 17.9 °F 12.2 °F 59% 30.36 in 10.0 mi SSW 5.8 mph - N/A   Scattered Clouds
9:15 PM 24.8 °F 17.9 °F 12.2 °F 59% 30.35 in 10.0 mi South 5.8 mph - N/A   Mostly Cloudy
9:35 PM 24.8 °F 16.1 °F 12.2 °F 59% 30.35 in 10.0 mi South 8.1 mph - N/A   Scattered Clouds
9:55 PM 24.8 °F 17.9 °F 12.2 °F 59% 30.33 in 10.0 mi South 5.8 mph - N/A   Mostly Cloudy
10:15 PM 26.6 °F 20.0 °F 14.0 °F 59% 30.33 in 10.0 mi South 5.8 mph - N/A   Overcast
10:35 PM 26.6 °F 20.0 °F 14.0 °F 59% 30.33 in 10.0 mi SSW 5.8 mph - N/A   Overcast
10:55 PM 26.6 °F 19.1 °F 14.0 °F 59% 30.33 in 10.0 mi SSW 6.9 mph - N/A   Scattered Clouds
11:15 PM 26.6 °F 19.1 °F 14.0 °F 59% 30.33 in 10.0 mi SSW 6.9 mph - N/A   Mostly Cloudy
11:35 PM 26.6 °F 19.1 °F 14.0 °F 59% 30.32 in 10.0 mi SSW 6.9 mph - N/A   Mostly Cloudy
11:55 PM 26.6 °F 20.0 °F 15.8 °F 64% 30.31 in 10.0 mi SSW 5.8 mph - N/A   Mostly Cloudy